Sheridan, WY

9:57 AM MDT on May 25, 2017 (GMT -0600)
Sheridan County

Weather History for KSHR - January, 2014

Change the Weather History Date:

Monday, January 13, 2014

  Actual Average Record
Temperature  
Mean Temperature 36 °F 24 °F  
Max Temperature 50 °F 36 °F 60 °F (1943)
Min Temperature 22 °F 11 °F -26 °F (1997)
Degree Days  
Heating Degree Days 29 41  
Month to date heating degree days 528 542  
Since 1 July heating degree days 3748 3725  
Cooling Degree Days 0 0  
Month to date cooling degree days 0 0  
Year to date cooling degree days 0 0  
Moisture  
Dew Point 24 °F    
Average Humidity 63    
Maximum Humidity 92    
Minimum Humidity 34    
Precipitation  
Precipitation 0.05 in 0.01 in 0.38 in (1928)
Month to date precipitation 0.42 0.21  
Year to date precipitation 0.42 0.21  
Sea Level Pressure  
Sea Level Pressure 29.91 in    
Wind  
Wind Speed 23 mph (WNW)    
Max Wind Speed 48 mph    
Max Gust Speed 66 mph    
Visibility 6 miles    
Events Fog , Snow    
T = Trace of Precipitation, MM = Missing Value Source: NWS Daily Summary

Daily Weather History Graph

Daily Weather History Graph

Search for Another Location

Airport or City:

Trip Planner

Search our weather history database for the weather conditions in past years. The results will help you decide how hot, cold, wet, or windy it might be!

Date:

Astronomy

Jan. 13, 2014 Rise Set
Actual Time 7:42 AM MST 4:50 PM MST
Civil Twilight 7:10 AM MST 5:23 PM MST
Nautical Twilight 6:33 AM MST 6:00 PM MST
Astronomical Twilight 5:58 AM MST 6:35 PM MST
Moon 3:09 PM MST (1/13) 5:33 AM MST (1/13)
Length of Visible Light 10h 13m
Length of Day
9h 08m
Waxing Gibbous, 95% of the Moon is Illuminated
Jan 13
Waxing Gibbous
Jan 15
Full
Jan 23
Last Quarter
Jan 30
New
Feb 6
First Quarter

Hourly Weather History & Observations

Time (MST) Temp. Windchill Dew Point Humidity Pressure Visibility Wind Dir Wind Speed Gust Speed Precip Events Conditions
12:53 AM 28.0 °F - 12.9 °F 53% 29.82 in 10.0 mi Calm Calm - N/A   Overcast
1:53 AM 34.0 °F 31.0 °F 12.9 °F 42% 29.79 in 10.0 mi North 3.5 mph - N/A   Overcast
2:53 AM 36.0 °F 26.7 °F 19.9 °F 52% 29.78 in 10.0 mi NW 15.0 mph - N/A   Overcast
3:53 AM 41.0 °F 31.4 °F 19.9 °F 43% 29.75 in 10.0 mi West 21.9 mph 34.5 mph N/A   Overcast
4:53 AM 41.0 °F 30.9 °F 19.9 °F 43% 29.74 in 10.0 mi West 24.2 mph 38.0 mph N/A   Overcast
5:53 AM 42.1 °F 31.5 °F 21.0 °F 43% 29.72 in 10.0 mi WNW 28.8 mph 44.9 mph N/A   Mostly Cloudy
6:53 AM 43.0 °F 32.5 °F 21.0 °F 42% 29.72 in 10.0 mi WNW 29.9 mph 43.7 mph N/A   Clear
7:53 AM 42.1 °F 31.7 °F 21.9 °F 45% 29.74 in 10.0 mi WNW 27.6 mph 38.0 mph N/A   Clear
8:53 AM 44.1 °F 34.8 °F 21.0 °F 40% 29.75 in 10.0 mi WNW 25.3 mph 36.8 mph N/A   Overcast
9:53 AM 45.0 °F 36.0 °F 19.9 °F 37% 29.76 in 10.0 mi WNW 25.3 mph 34.5 mph N/A   Clear
10:53 AM 46.0 °F 37.0 °F 21.0 °F 37% 29.76 in 10.0 mi WNW 27.6 mph 32.2 mph N/A   Overcast
11:53 AM 46.0 °F 38.3 °F 21.9 °F 39% 29.75 in 10.0 mi WNW 20.7 mph - N/A   Partly Cloudy
12:53 PM 48.0 °F - 21.0 °F 34% 29.70 in 10.0 mi WNW 21.9 mph 34.5 mph N/A   Clear
1:53 PM 48.0 °F - 21.0 °F 34% 29.68 in 10.0 mi WNW 27.6 mph 46.0 mph N/A   Clear
2:53 PM 46.9 °F - 21.9 °F 37% 29.72 in 10.0 mi WNW 23.0 mph 36.8 mph N/A   Clear
3:53 PM 46.0 °F 38.5 °F 21.9 °F 39% 29.73 in 10.0 mi WNW 19.6 mph 32.2 mph N/A   Partly Cloudy
4:53 PM 45.0 °F 35.6 °F 21.9 °F 40% 29.78 in 10.0 mi NW 27.6 mph 35.7 mph N/A   Overcast
5:53 PM 44.1 °F 32.9 °F 21.9 °F 42% 29.80 in 10.0 mi NW 38.0 mph 48.3 mph N/A   Overcast
6:53 PM 36.0 °F 23.9 °F 30.0 °F 79% 29.91 in 10.0 mi North 25.3 mph 39.1 mph N/A   Overcast
7:24 PM 34.0 °F 23.0 °F 30.0 °F 85% 29.92 in 9.0 mi NNW 18.4 mph - 0.00 in Snow Light Snow
7:34 PM 33.1 °F 21.9 °F 30.9 °F 92% 29.94 in 5.0 mi NW 18.4 mph - 0.00 in Snow Light Snow
7:53 PM 32.0 °F 18.9 °F 30.0 °F 92% 30.03 in 2.0 mi NW 24.2 mph 33.4 mph 0.00 in Snow Light Snow
8:00 PM 32.0 °F 18.4 °F 30.0 °F 92% 29.97 in 1.2 mi NW 26.5 mph - 0.00 in Snow Light Snow
8:12 PM 32.0 °F 17.4 °F 28.9 °F 88% 30.00 in 0.8 mi NW 31.1 mph - 0.00 in Snow Light Snow
8:39 PM 30.9 °F 16.9 °F 28.9 °F 92% 30.03 in 0.5 mi NW 26.5 mph 38.0 mph 0.01 in Fog , Snow Snow
8:53 PM 30.0 °F 15.7 °F 28.0 °F 92% 30.11 in 0.8 mi NW 26.5 mph 36.8 mph 0.02 in Snow Light Snow
9:06 PM 30.0 °F 14.7 °F 28.9 °F 96% 30.07 in 0.5 mi NW 31.1 mph 36.8 mph 0.01 in Fog , Snow Snow
9:32 PM 30.0 °F 16.6 °F 28.0 °F 92% 30.07 in 0.8 mi WNW 23.0 mph 33.4 mph 0.03 in Snow Light Snow
9:37 PM 30.0 °F 15.7 °F 28.0 °F 92% 30.08 in 1.0 mi WNW 26.5 mph 32.2 mph 0.03 in Snow Light Snow
9:45 PM 30.0 °F 16.3 °F 27.0 °F 88% 30.08 in 1.8 mi NW 24.2 mph - 0.03 in Snow Light Snow
9:53 PM 30.0 °F 17.2 °F 27.0 °F 88% 30.15 in 2.0 mi NW 20.7 mph - 0.03 in Snow Light Snow
10:10 PM 30.0 °F 16.6 °F 27.0 °F 88% 30.11 in 1.2 mi WNW 23.0 mph - 0.00 in Snow Light Snow
10:38 PM 30.0 °F 16.0 °F 27.0 °F 88% 30.14 in 2.0 mi WNW 25.3 mph - 0.00 in Snow Light Snow
10:53 PM 28.9 °F 16.5 °F 26.1 °F 89% 30.19 in 2.0 mi WNW 18.4 mph - 0.00 in Snow Light Snow
11:03 PM 28.9 °F 16.9 °F 26.1 °F 89% 30.13 in 6.0 mi West 17.3 mph - 0.00 in Snow Light Snow
11:35 PM 28.9 °F 15.1 °F 26.1 °F 89% 30.15 in 1.8 mi WNW 23.0 mph - 0.00 in Snow Light Snow
11:46 PM 28.9 °F 14.5 °F 26.1 °F 89% 30.15 in 1.0 mi WNW 25.3 mph 32.2 mph 0.00 in Snow Light Snow
11:53 PM 28.9 °F 14.8 °F 26.1 °F 89% 30.22 in 1.2 mi WNW 24.2 mph - 0.00 in Snow Light Snow